Location: Chassagnes
(44.4047°N, 4.1657°E)
Time: 12:15:50
(UTC+00:00)

Timation 1 Rocket - Pass Details

Date: 27 October 2020
Orbit: 896 x 911 km, 70.0° (Epoch: 23 November)

Event Time Altitude Azimuth Distance (km) Brightness Sun altitude
Rises 19:11:48 0° 332° (NNW) 3,548 7.9 -27.8°
Reaches altitude 10° 19:14:19 10° 331° (NNW) 2,604 7.2 -28.2°
Maximum altitude 19:20:21 82° 246° (WSW) 925 4.3 -29.3°
Enters shadow 19:20:33 80° 211° (SSW) 928 4.3 -29.3°
